Location: Newark
(25.6108°S, 54.5803°W)
Time: 13:27:32
(UTC+00:00)

Courier 1B Rocket - Pass Details

Date: 31 October 2020
Orbit: 920 x 1202 km, 28.2° (Epoch: 01 December)

Event Time Altitude Azimuth Distance (km) Brightness Sun altitude
Rises 06:27:35 0° 317° (NW) 4,079 - -29.7°
Reaches altitude 10° 06:30:47 10° 326° (NNW) 3,102 - -29.1°
Exits shadow 06:36:28 32° 12° (NNE) 1,876 6.2 -28.1°
Maximum altitude 06:37:31 33° 27° (NNE) 1,827 6.3 -27.9°
Drops below altitude 10° 06:43:59 10° 88° (E) 2,975 8.2 -26.7°
Sets 06:46:58 0° 97° (E) 3,890 9.2 -26.1°
